Asheville, NC

5:52 AM EST on December 14, 2019 (GMT -0500)
Asheville Regional

Weather History for KAVL - September, 2019

Change the Weather History Date:

Tuesday, September 10, 2019

  Actual Average Record
Temperature  
Mean Temperature 76 °F 68 °F  
Max Temperature 89 °F 79 °F 91 °F (1897)
Min Temperature 62 °F 58 °F 40 °F (1998)
Degree Days  
Heating Degree Days 0 1  
Month to date heating degree days 0 2  
Since 1 July heating degree days 0 4  
Cooling Degree Days 11 4  
Month to date cooling degree days 99 50  
Year to date cooling degree days 1105 807  
Growing Degree Days 26 (Base 50)    
Moisture  
Dew Point 63 °F    
Average Humidity 68    
Maximum Humidity 90    
Minimum Humidity 46    
Precipitation  
Precipitation 0.00 in 0.13 in 2.06 in (1888)
Month to date precipitation 0.00 1.34  
Year to date precipitation 41.71 32.95  
Snow  
Snow 0.00 in 0.00 in 0.00 in ()
Month to date snowfall 0.0 0.0  
Since 1 July snowfall 0.0 0.0  
Since 1 September snowfall 0.0 0.0  
Snow Depth 0.00 in    
Sea Level Pressure  
Sea Level Pressure 30.25 in    
Wind  
Wind Speed 2 mph (SSE)    
Max Wind Speed 14 mph    
Max Gust Speed 20 mph    
Visibility 10 miles    
Events      
T = Trace of Precipitation, MM = Missing Value Source: NWS Daily Summary

Daily Weather History Graph

Daily Weather History Graph

Search for Another Location

Airport or City:

Astronomy

Sep. 10, 2019 Rise Set
Actual Time 7:09 AM EDT 7:44 PM EDT
Civil Twilight 6:43 AM EDT 8:10 PM EDT
Nautical Twilight 6:13 AM EDT 8:40 PM EDT
Astronomical Twilight 5:42 AM EDT 9:11 PM EDT
Moon 6:11 PM EDT (9/10) 3:43 AM EDT (9/10)
Length of Visible Light 13h 27m
Length of Day
12h 35m
Waxing Gibbous, 89% of the Moon is Illuminated
Sep 10
Waxing Gibbous
Sep 14
Full
Sep 21
Last Quarter
Sep 28
New
Oct 5
First Quarter

Hourly Weather History & Observations

Time (EDT) Temp. Heat Index Dew Point Humidity Pressure Visibility Wind Dir Wind Speed Gust Speed Precip Events Conditions
12:54 AM 66.0 °F - 61.0 °F 84% 30.22 in 10.0 mi Calm Calm - N/A   Clear
1:54 AM 66.0 °F - 61.0 °F 84% 30.23 in 10.0 mi Calm Calm - N/A   Clear
2:54 AM 64.9 °F - 61.0 °F 87% 30.22 in 10.0 mi Calm Calm - N/A   Clear
3:54 AM 64.0 °F - 60.1 °F 87% 30.22 in 10.0 mi Calm Calm - N/A   Clear
4:54 AM 63.0 °F - 59.0 °F 87% 30.23 in 10.0 mi WSW 3.5 mph - N/A   Clear
5:54 AM 63.0 °F - 59.0 °F 87% 30.24 in 10.0 mi Calm Calm - N/A   Clear
6:54 AM 63.0 °F - 59.0 °F 87% 30.26 in 9.0 mi Calm Calm - N/A   Clear
8:54 AM 68.0 °F - 61.0 °F 78% 30.29 in 10.0 mi Calm Calm - N/A   Clear
9:54 AM 73.9 °F - 63.0 °F 68% 30.30 in 10.0 mi Calm Calm - N/A   Clear
10:54 AM 79.0 °F - 64.0 °F 60% 30.29 in 10.0 mi Calm Calm - N/A   Clear
11:54 AM 82.0 °F 84.1 °F 66.0 °F 58% 30.29 in 10.0 mi Calm Calm - N/A   Clear
12:54 PM 87.1 °F 89.2 °F 66.0 °F 49% 30.27 in 10.0 mi ESE 5.8 mph - N/A   Scattered Clouds
1:54 PM 87.1 °F 88.9 °F 64.9 °F 48% 30.26 in 10.0 mi SSE 6.9 mph - N/A   Partly Cloudy
2:54 PM 87.1 °F 89.2 °F 66.0 °F 49% 30.25 in 10.0 mi Variable 5.8 mph - N/A   Partly Cloudy
3:54 PM 87.1 °F 89.9 °F 66.9 °F 51% 30.25 in 10.0 mi SSE 10.4 mph - N/A   Partly Cloudy
4:54 PM 86.0 °F 88.2 °F 66.0 °F 51% 30.23 in 10.0 mi SSE 9.2 mph - N/A   Partly Cloudy
5:54 PM 86.0 °F 87.3 °F 64.0 °F 48% 30.24 in 10.0 mi Variable 6.9 mph - N/A   Clear
6:54 PM 84.9 °F 86.6 °F 64.9 °F 51% 30.23 in 10.0 mi Variable 3.5 mph - N/A   Clear
7:54 PM 81.0 °F 82.7 °F 64.9 °F 58% 30.24 in 10.0 mi SE 3.5 mph - N/A   Clear
8:54 PM 77.0 °F - 66.0 °F 69% 30.26 in 10.0 mi Calm Calm - N/A   Clear
9:54 PM 73.9 °F - 66.9 °F 79% 30.27 in 10.0 mi Calm Calm - N/A   Clear
10:54 PM 73.0 °F - 66.0 °F 79% 30.28 in 10.0 mi Calm Calm - N/A   Clear
11:54 PM 72.0 °F - 66.0 °F 81% 30.28 in 9.0 mi Calm Calm - N/A   Clear